COSMOS 1375 DEB

Satellite information

Favourite Embed

Satellite Type and Status

DEBRISIN ORBIT

Key statistics

Satellite COSMOS 1375 DEB at a glance.

Uptime

15897

Days in orbit

Revolutions

≈ 13.7

Per day

Orbit

LEO

Low Earth Orbit

Inclination

65.8

Latest

Satellite identification and parameters

Extended collection of information and parameters for COSMOS 1375 DEB.

Object identification

Identified? True

Debris? True

Object name: COSMOS 1375 DEB

International designator: 1982-055AS

Object number (NORAD): 17800

Object ID (CCSDS): 17800

Country: COMMONWEALTH OF INDEPENDENT STATES (CIS)

Current information (Y/N): Y

RCS size: SMALL

Orbital parameters

Period: 105.05 minutes

Inclination: 65.8352 deg

SMA: 7374.905 km

Apoapsis: 1020.675 km

Periapsis: 972.864 km

RAAN: 104.3762 deg

Eccentricy: 0.0032415

Argument of periapsis: 186.9895 deg

Mean anomaly: 280.8055 deg

Mean motion: 13.70781226 rev/day

Mean motion (dot): 0.00000055 rev/day2

B* drag term: 0.00015048623 1/REarth

Two-line elements (TLE)

Creation date: Dec. 14, 2025, 3:07 a.m.

Reference frame: TEME

Reference center: EARTH

Epoch: Dec. 13, 2025, 4:36 p.m. UTC

TLE line 0: 0 COSMOS 1375 DEB

TLE line 1: 1 17800U 82055AS 25347.69189458 .00000055 00000-0 15049-3 0 9999

TLE line 2: 2 17800 65.8352 104.3762 0032415 186.9895 280.8055 13.70781226 7272

Live tracking on map

Real-time ground track for satellite COSMOS 1375 DEB.

In-orbit conjunctions

A list of the most updated potential collisions computed for object COSMOS 1375 DEB.

Target Orbit TCA Probability of collision Miss distance Type
SL-8 R/B LEO 2024-11-03 07:27:41 0.001281707 55.0 (m) ROCKET BODY

Associated space launch

ASAT target satellite

COSMOS 1375 DEB was lifted into orbit during the mission ‘Kosmos-3M | DS-P1-M 16’, on board a Kosmos-3M space rocket.

The launch took place on June 6, 1982, 5:10 p.m. from 132/2.

For more information about the launch, click the button.

Launch to space Kosmos-3M | DS-P1-M 16
Kosmos-3M | DS-P1-M 16

Agency: N/A

Status: Launch Successful

Launch date: June 6, 1982, 5:10 p.m. UTC

Rocket: Kosmos-3M

Launch pad: 132/2

Location: Plesetsk Cosmodrome, Russian Federation

...

Latest news about this satellite

There are no fresh news available about this satellite. Check back as we update our databases every day.


Newsletter sign-up

Weekly statistics, charts and insights to help you stay on top of the space industry.